This demonstration page uses our WeatherBlox Daily Observations layout. Learn more.

Left ArrowRight Arrow

39.29038, -76.61219

Hourly Observations for October 7, 2020

Temp ( °F °C ) Dew Point ( °F °C ) Humidity (%) Winds ( mph kmh ) Pressure ( in mb ) Visibility ( mi km ) Precip ( " mm )
12:54 am 00:54 Mostly Clear 54 12.2 51 10.6 90 90 Calm 29.94 1014 10 16 0.00 0.00
1:54 am 01:54 Clear 54 12.2 51 10.6 90 90 Calm 29.93 1013 10 16 0.00 0.00
2:54 am 02:54 Clear 51 10.6 49 9.4 92 92 WSW 3 6 29.91 1013 10 16 0.00 0.00
3:54 am 03:54 Clear 54 12.2 51 10.6 90 90 Calm 29.90 1013 10 16 0.00 0.00
4:54 am 04:54 Clear 52 11.1 50 10 93 93 SW 5 7 29.90 1012 10 16 0.00 0.00
5:54 am 05:54 Clear 56 13.3 53 11.7 90 90 SW 5 7 29.89 1012 10 16 0.00 0.00
6:54 am 06:54 Mostly Clear 53 11.7 51 10.6 93 93 SW 3 6 29.88 1012 10 16 0.00 0.00
7:54 am 07:54 Mostly Sunny 57 13.9 54 12.2 90 90 SSW 5 7 29.88 1012 10 16 0.00 0.00
8:54 am 08:54 Mostly Sunny 61 16.1 56 13.3 84 84 WSW 3 6 29.88 1012 10 16 0.00 0.00
9:54 am 09:54 Mostly Sunny 67 19.4 55 12.8 66 66 SW 7 11 29.87 1012 10 16 0.00 0.00
10:54 am 10:54 Sunny 73 22.8 56 13.3 55 55 SSW 8 13 29.84 1010 10 16 0.00 0.00
11:54 am 11:54 Mostly Sunny 75 23.9 53 11.7 46 46 SW 13 20 29.80 1009 10 16 0.00 0.00
12:54 pm 12:54 Partly Cloudy 78 25.6 51 10.6 39 39 WSW 18 30 29.78 1009 10 16 0.00 0.00
1:54 pm 13:54 Mostly Cloudy 79 26.1 51 10.6 38 38 WSW 21 33 29.75 1007 10 16 0.00 0.00
2:54 pm 14:54 Mostly Sunny 80 26.7 53 11.7 39 39 SW 12 19 29.71 1006 10 16 0.00 0.00
3:54 pm 15:54 Mostly Sunny 81 27.2 53 11.7 38 38 SW 13 20 29.69 1005 10 16 0.00 0.00
4:54 pm 16:54 Mostly Sunny 81 27.2 55 12.8 41 41 SW 8 13 29.68 1005 10 16 0.00 0.00
5:54 pm 17:54 Partly Cloudy 79 26.1 54 12.2 42 42 WSW 10 17 29.69 1006 10 16 0.00 0.00
6:54 pm 18:54 Partly Cloudy 76 24.4 55 12.8 48 48 WSW 6 9 29.72 1007 10 16 0.00 0.00
7:54 pm 19:54 Partly Cloudy 71 21.7 56 13.3 59 59 W 6 9 29.76 1008 10 16 0.00 0.00
8:54 pm 20:54 Partly Cloudy 71 21.7 53 11.7 53 53 W 9 15 29.78 1009 10 16 0.00 0.00
9:54 pm 21:54 Partly Cloudy 71 21.7 52 11.1 51 51 NNW 6 9 29.82 1010 10 16 0.00 0.00
10:54 pm 22:54 Partly Cloudy 68 20 50 10 53 53 NW 6 9 29.84 1011 10 16 0.00 0.00
11:54 pm 23:54 Mostly Clear 66 18.9 50 10 56 56 Calm 29.86 1011 10 16 0.00 0.00

Powered by AerisWeather